Temp
58 53 49 54 58 60 59 57 55 60 67 61 58 58 63 66 66 67 69 71 72 73 76 77 78 78 77 75 73 72 72 71 72 71 70 71 71 72 73 74 75 75 75 75
54 49 59 63 62 60 58 55 54 64 65 61 56 56 62 63 64 67 68 70 73 74 73 76 78 78 77 75 74 72 73 71 73 73 72 73 72 73 73 74 75 76 76 75
51 59 66 64 60 58 52 52 54 60 62 60 58 57 61 64 66 67 69 71 73 75 73 75 76 77 77 75 74 73 73 72 73 73 72 71 72 73 72 73 74 76 76 76
56 63 65 60 59 59 43 61 62 60 54 49 57 46 53 61 63 66 66 68 70 74 76 75 76 76 76 76 77 75 74 73 73 72 72 71 71 71 73 73 73 75 77 75
56 60 59 57 60 62 57 63 61 59 52 48 52 49 51 57 55 60 65 69 72 75 77 75 76 76 77 77 77 76 74 73 73 73 73 72 71 72 73 73 73 74 75 75
59 64 60 62 65 65 66 59 53 49 47 42 47 50 51 52 57 60 66 69 73 74 77 77 77 77 77 78 77 76 73 73 73 73 71 71 71 71 72 72 73 73 74 75
55 56 60 62 56 60 58 49 39 39 40 41 45 49 49 59 63 63 65 68 71 76 76 74 75 75 76 75 75 75 73 72 72 72 72 72 72 72 72 72 73 72 73 74
44 44 54 61 53 50 51 49 41 35 35 42 47 45 51 62 65 67 67 68 71 74 74 76 76 76 75 76 75 75 73 73 73 73 72 71 72 74 73 73 73 74 74 76
42 43 57 60 58 54 50 45 47 41 36 42 44 49 57 63 63 65 65 66 67 73 74 73 75 77 76 76 75 75 74 74 74 74 73 71 71 71 73 73 74 74 75 78
42 41 48 57 58 57 52 51 45 42 37 35 41 42 44 52 55 61 62 63 64 67 71 73 75 76 77 78 77 76 76 75 75 75 75 74 72 72 73 73 73 74 75 76
40 42 44 49 45 42 46 42 41 40 38 37 34 39 53 51 54 57 60 62 64 66 70 72 74 73 77 78 78 77 76 75 75 76 76 75 73 72 71 73 74 75 75 75
48 40 34 37 49 52 46 41 37 39 37 34 37 40 55 55 56 58 60 63 64 67 69 71 72 70 71 74 77 77 77 76 77 76 75 75 75 73 72 72 73 74 75 75
49 39 32 35 42 46 43 44 37 36 35 33 37 39 55 55 55 57 58 62 63 64 65 66 67 67 69 71 70 70 73 75 77 75 76 75 75 73 73 73 73 73 74 74
52 39 37 32 35 39 39 44 44 37 35 34 37 41 47 49 52 54 56 61 64 64 64 65 66 66 68 69 70 69 70 71 77 75 76 74 75 75 75 75 73 73 73 74
42 34 36 37 42 42 41 42 45 39 38 37 40 42 45 48 51 53 56 58 59 62 62 62 62 66 67 68 69 70 71 71 72 75 75 75 75 75 75 75 74 74 73 74
39 32 33 33 41 41 40 44 45 45 45 44 44 41 48 52 54 53 53 55 55 58 60 61 62 62 64 64 65 67 69 70 74 74 73 75 75 74 74 74 74 72 73 73
35 33 30 26 35 37 33 39 42 43 44 43 38 42 49 48 51 50 51 53 54 56 58 59 60 61 61 62 63 63 65 69 70 73 74 72 72 73 74 74 73 72 72 73
34 31 28 26 28 26 37 45 48 45 46 46 46 47 48 48 50 53 53 51 53 55 57 58 60 61 61 62 61 62 66 69 69 70 74 74 73 73 73 73 72 73 74 73
34 31 26 26 25 33 41 41 41 39 40 46 44 45 46 47 50 51 52 53 53 55 58 59 62 63 62 61 60 61 64 63 64 66 69 72 74 73 73 73 73 73 74 73
35 33 30 27 23 25 36 42 46 43 33 44 44 42 41 44 40 46 49 52 53 55 58 59 60 62 64 61 60 59 61 61 60 62 64 66 68 70 73 73 72 73 74 75
26 28 26 26 24 31 39 42 45 32 33 43 42 42 40 39 41 45 49 50 53 54 55 58 59 59 60 62 59 57 57 58 60 62 63 65 67 67 70 71 74 73 74 72
28 24 28 30 24 24 43 43 37 38 39 41 41 41 40 41 44 46 47 49 50 51 53 56 55 57 59 60 58 56 55 58 59 60 62 63 64 66 68 68 70 73 74 73
25 30 26 30 30 38 40 40 41 41 38 40 40 44 46 42 42 45 46 48 49 51 51 54 54 54 58 58 58 55 56 57 58 58 60 61 63 64 66 67 67 69 73 73
31 34 27 30 35 36 39 41 42 42 40 42 44 47 48 45 47 46 46 46 48 50 50 52 52 52 54 57 56 56 57 57 56 56 57 58 60 62 63 66 67 67 72 74
31 34 31 28 33 36 40 41 41 42 45 46 48 47 47 47 46 46 45 46 47 49 50 51 50 51 52 56 55 56 56 56 55 55 55 56 58 59 61 64 65 67 71 73
34 32 28 28 36 37 38 41 43 42 43 44 46 46 48 48 46 46 46 47 48 48 50 49 50 51 52 55 53 53 55 54 54 53 55 55 56 58 59 61 64 58 55 54
MSLP
1010.49 1011.07 1011.00 1011.11 1010.87 1010.51 1010.47 1010.51 1010.30 1009.92 1009.76 1010.17 1010.78 1011.27 1011.51 1011.79 1012.03 1012.17 1012.21 1012.34 1012.92 1013.15 1013.63 1014.05 1014.34 1014.87 1015.61 1016.36 1017.04 1017.29 1017.65 1017.97 1018.52 1019.11 1019.55 1019.93 1019.98 1020.10 1020.31 1020.37 1020.55 1020.86 1021.12 1021.33
1010.75 1010.59 1010.53 1010.47 1010.51 1010.46 1010.38 1010.60 1010.50 1009.99 1010.00 1010.41 1010.99 1011.38 1011.47 1011.89 1012.03 1012.17 1012.36 1012.40 1012.62 1013.05 1013.43 1013.80 1014.10 1014.53 1015.09 1015.65 1016.48 1017.15 1017.52 1017.80 1018.12 1018.52 1018.89 1019.17 1019.49 1019.85 1020.00 1020.21 1020.45 1020.79 1020.93 1021.25
1010.11 1009.71 1009.77 1010.11 1010.20 1010.22 1010.34 1010.62 1010.61 1010.47 1010.38 1010.84 1011.15 1011.74 1011.82 1012.16 1012.41 1012.46 1012.55 1012.45 1012.41 1012.57 1013.00 1013.48 1013.68 1014.17 1014.71 1015.26 1015.90 1016.61 1016.91 1017.43 1017.91 1018.26 1018.87 1019.26 1019.47 1019.91 1020.29 1020.48 1020.62 1020.57 1020.81 1021.02
1009.58 1009.21 1009.32 1009.65 1009.76 1010.04 1010.34 1010.28 1010.47 1010.81 1011.19 1011.37 1011.44 1012.27 1012.01 1012.05 1012.43 1012.63 1012.33 1012.18 1012.18 1012.13 1012.54 1013.01 1013.41 1013.89 1014.48 1014.91 1015.19 1015.88 1016.64 1017.23 1017.68 1018.18 1018.56 1018.81 1019.15 1019.75 1019.97 1019.97 1020.29 1020.38 1020.61 1020.95
1009.24 1009.01 1009.17 1009.30 1009.29 1009.58 1010.10 1010.18 1010.67 1011.13 1011.69 1012.05 1012.04 1012.43 1011.93 1012.11 1012.35 1012.11 1011.52 1011.39 1011.52 1011.42 1011.71 1012.16 1012.81 1013.29 1013.80 1014.45 1015.01 1015.50 1016.22 1017.08 1017.57 1017.93 1018.11 1018.55 1019.11 1019.35 1019.61 1019.97 1020.19 1020.50 1020.58 1020.85
1009.02 1008.74 1008.91 1008.71 1008.72 1009.05 1009.74 1010.82 1011.80 1012.51 1012.97 1013.32 1012.61 1012.75 1012.53 1012.48 1012.11 1011.51 1011.15 1010.75 1010.58 1010.68 1010.92 1011.33 1011.98 1012.87 1013.48 1014.06 1014.69 1015.31 1015.93 1016.61 1017.31 1017.64 1017.93 1018.25 1018.70 1019.21 1019.64 1019.98 1020.21 1020.38 1020.55 1020.69
1009.87 1009.79 1009.48 1009.20 1009.13 1009.49 1010.17 1011.78 1013.34 1014.39 1014.74 1014.35 1013.31 1012.97 1013.87 1012.60 1011.89 1011.55 1010.51 1009.92 1009.97 1010.19 1010.71 1010.93 1011.39 1012.08 1012.94 1013.51 1014.29 1015.11 1015.65 1016.22 1016.85 1017.39 1017.70 1018.05 1018.23 1018.59 1019.09 1019.45 1019.78 1020.17 1020.41 1020.53
1011.50 1011.26 1010.63 1010.33 1010.45 1010.56 1011.01 1011.85 1013.25 1014.38 1015.28 1014.83 1013.85 1013.31 1013.39 1012.87 1012.22 1011.32 1010.09 1009.53 1009.65 1009.75 1010.03 1010.61 1011.18 1011.63 1012.38 1012.98 1013.66 1014.37 1015.22 1015.73 1016.33 1016.86 1017.25 1017.64 1018.10 1018.25 1018.46 1018.83 1019.23 1019.63 1019.80 1019.83
1012.71 1012.57 1011.88 1011.51 1011.54 1011.67 1012.02 1012.84 1013.64 1014.79 1015.82 1015.31 1014.82 1014.05 1013.33 1012.64 1011.99 1011.39 1011.03 1010.74 1010.48 1010.05 1010.09 1010.31 1010.61 1011.13 1011.72 1012.36 1013.01 1013.73 1014.57 1015.06 1015.85 1016.05 1016.83 1017.30 1017.73 1018.10 1018.11 1018.29 1018.69 1019.08 1019.26 1019.42
1013.56 1013.84 1013.53 1012.92 1012.45 1012.54 1012.76 1014.01 1014.67 1015.43 1016.65 1016.74 1016.41 1016.01 1015.93 1014.74 1014.07 1013.15 1012.20 1011.82 1011.25 1010.54 1009.84 1009.85 1010.15 1010.46 1011.01 1011.69 1012.39 1013.06 1013.81 1014.40 1014.80 1015.51 1015.90 1016.55 1017.01 1017.54 1017.86 1017.98 1018.32 1018.57 1018.73 1019.02
1014.28 1014.59 1015.39 1014.70 1016.10 1015.62 1014.85 1015.47 1016.26 1016.77 1017.39 1017.36 1017.67 1017.64 1017.02 1016.62 1015.75 1014.88 1013.75 1012.55 1011.41 1010.16 1009.53 1009.70 1009.98 1010.53 1010.82 1011.38 1012.04 1012.65 1013.38 1013.92 1014.52 1015.07 1015.62 1015.92 1016.57 1017.03 1017.61 1017.68 1017.69 1018.04 1018.36 1018.67
1015.44 1016.45 1017.68 1017.79 1017.42 1017.05 1016.75 1017.31 1017.62 1017.89 1018.82 1018.59 1018.10 1018.28 1017.59 1017.36 1016.64 1015.94 1014.89 1013.61 1012.06 1010.43 1010.13 1010.27 1010.44 1010.75 1011.09 1011.46 1011.76 1012.18 1012.79 1013.46 1013.76 1014.24 1014.81 1015.38 1015.85 1016.35 1017.09 1017.43 1017.33 1017.43 1017.83 1018.08
1016.06 1017.72 1018.78 1019.23 1018.65 1018.17 1018.35 1018.33 1018.35 1018.57 1018.75 1019.36 1018.92 1018.87 1018.12 1017.97 1017.25 1016.70 1016.00 1014.75 1013.63 1012.67 1012.09 1011.71 1011.53 1011.57 1011.70 1011.98 1012.26 1012.63 1012.84 1013.05 1013.49 1014.10 1014.53 1015.00 1015.32 1015.95 1016.20 1016.69 1017.08 1017.17 1017.19 1017.54
1016.78 1018.79 1019.19 1019.57 1019.64 1019.67 1019.68 1019.25 1018.62 1018.80 1019.21 1019.90 1019.45 1019.01 1018.77 1018.71 1018.37 1017.69 1017.02 1016.12 1015.14 1014.38 1013.94 1013.48 1013.11 1012.86 1012.69 1012.78 1012.69 1012.81 1012.93 1013.09 1013.33 1013.85 1014.15 1014.45 1014.76 1014.99 1015.48 1015.88 1016.26 1016.72 1016.93 1017.02
1018.47 1020.28 1020.46 1020.58 1020.41 1020.11 1019.99 1019.75 1019.27 1018.97 1019.01 1019.27 1019.84 1019.48 1019.36 1019.23 1019.07 1018.75 1018.30 1017.33 1016.47 1015.91 1015.43 1014.99 1014.55 1013.82 1013.62 1013.27 1013.14 1012.94 1012.72 1012.70 1012.96 1013.22 1013.53 1013.58 1013.81 1014.37 1014.87 1015.39 1015.73 1016.01 1016.37 1016.52
1020.19 1021.39 1021.56 1021.85 1021.39 1020.87 1020.43 1020.00 1019.55 1019.31 1019.02 1018.98 1019.47 1019.96 1019.73 1019.72 1019.49 1018.95 1018.73 1018.39 1017.89 1017.30 1016.77 1016.20 1015.62 1015.23 1014.76 1014.51 1014.12 1013.53 1013.20 1012.97 1012.68 1012.71 1012.54 1012.69 1013.17 1013.64 1014.12 1014.49 1014.96 1015.34 1015.77 1015.94
1021.47 1022.07 1022.79 1022.93 1022.31 1021.63 1021.15 1020.18 1019.95 1019.64 1019.43 1019.54 1020.13 1020.37 1020.23 1020.17 1020.13 1020.01 1019.63 1019.27 1019.00 1018.49 1017.82 1017.21 1016.64 1016.17 1015.77 1015.32 1014.72 1014.36 1013.78 1013.09 1012.66 1012.53 1012.51 1012.58 1012.74 1012.99 1013.20 1013.63 1014.23 1014.47 1014.68 1015.11
1022.46 1023.07 1023.51 1023.87 1023.08 1022.58 1021.20 1020.57 1020.21 1020.21 1020.27 1020.37 1020.68 1021.06 1021.15 1021.15 1020.88 1020.76 1020.62 1020.32 1019.68 1019.24 1018.66 1018.03 1017.50 1016.94 1016.44 1016.06 1015.39 1014.70 1014.07 1013.27 1012.57 1012.53 1012.31 1012.26 1012.29 1012.34 1012.56 1013.10 1013.41 1013.63 1013.95 1014.21
1022.98 1023.53 1024.47 1024.58 1024.08 1023.45 1021.76 1021.57 1021.52 1021.58 1021.44 1021.37 1021.56 1022.03 1022.00 1021.55 1020.96 1020.63 1020.86 1020.99 1020.57 1019.85 1019.14 1018.54 1018.08 1017.60 1017.17 1016.74 1016.33 1015.46 1014.73 1013.86 1013.41 1013.17 1012.86 1012.54 1012.29 1012.25 1012.43 1012.45 1012.55 1012.79 1013.26 1013.42
1023.70 1023.78 1024.45 1025.19 1024.74 1023.94 1022.79 1022.55 1022.42 1022.54 1022.72 1022.54 1022.49 1022.90 1023.11 1022.50 1022.10 1021.27 1021.21 1021.20 1020.91 1020.40 1019.68 1018.85 1018.20 1017.78 1017.35 1017.04 1016.70 1016.25 1015.61 1014.71 1014.24 1013.80 1013.54 1013.10 1012.59 1012.22 1011.90 1011.68 1011.90 1012.24 1012.51 1012.50
1024.73 1025.13 1025.33 1025.44 1025.07 1024.03 1023.39 1023.17 1022.93 1023.58 1024.08 1023.65 1023.68 1023.82 1024.05 1023.97 1023.47 1022.27 1021.85 1021.31 1021.16 1020.82 1020.13 1019.41 1018.68 1018.05 1017.64 1017.24 1016.95 1016.52 1016.19 1015.53 1014.73 1014.20 1013.83 1013.35 1012.83 1012.43 1011.97 1011.55 1011.43 1011.56 1011.76 1012.09
1025.42 1025.64 1025.99 1026.05 1025.59 1024.39 1023.30 1023.30 1023.81 1024.13 1024.04 1024.15 1024.32 1024.25 1024.30 1024.31 1023.55 1022.77 1021.81 1021.35 1021.11 1020.40 1019.96 1019.52 1019.05 1018.28 1017.77 1017.44 1017.27 1016.90 1016.57 1016.24 1015.36 1014.51 1013.84 1013.45 1012.92 1012.52 1012.07 1011.63 1011.41 1011.12 1011.09 1011.16
1025.98 1025.61 1025.46 1025.49 1024.69 1023.85 1023.73 1023.67 1023.78 1024.09 1024.37 1024.44 1024.41 1024.09 1024.02 1023.91 1023.46 1022.70 1022.02 1021.13 1020.61 1020.43 1019.83 1019.42 1019.05 1018.37 1017.72 1017.44 1017.23 1017.08 1016.60 1016.45 1015.82 1015.28 1014.04 1013.66 1013.37 1012.65 1011.87 1011.36 1011.19 1010.73 1010.54 1010.15
1025.28 1025.05 1025.38 1025.37 1024.18 1023.93 1023.96 1023.93 1023.91 1024.17 1024.35 1024.27 1024.04 1023.80 1023.69 1023.57 1023.12 1022.38 1021.67 1021.12 1020.36 1019.90 1019.62 1019.19 1018.63 1018.09 1017.45 1017.20 1016.93 1016.96 1016.72 1016.29 1015.69 1014.87 1013.57 1013.60 1012.92 1012.17 1011.31 1011.82 1010.63 1010.17 1009.95 1009.17
1024.72 1024.81 1024.79 1024.75 1023.69 1023.73 1023.55 1023.60 1023.60 1023.73 1023.61 1023.48 1023.40 1023.34 1023.07 1022.94 1022.62 1022.09 1021.26 1020.65 1020.05 1019.27 1018.88 1018.62 1018.10 1017.45 1016.97 1016.77 1016.47 1016.33 1016.24 1016.02 1015.45 1014.30 1013.84 1013.70 1012.87 1011.59 1011.59 1010.87 1010.57 1009.78 1009.00 1008.43
1023.48 1023.15 1023.68 1023.00 1022.10 1022.10 1022.35 1022.53 1022.72 1022.83 1022.71 1022.59 1022.59 1022.47 1022.32 1022.28 1022.10 1021.70 1020.81 1020.21 1019.54 1018.66 1018.00 1017.73 1017.36 1016.90 1016.29 1016.02 1015.83 1015.75 1015.65 1015.67 1015.14 1014.47 1013.72 1013.14 1012.04 1010.81 1011.75 1010.98 1010.12 1009.18 1008.65 1007.95
Wind_Speed
3 5 6 7 6 4 3 4 0 2 3 3 3 4 8 9 5 9 12 15 16 17 9 13 15 14 12 8 7 9 10 8 7 3 3 2 3 2 2 3 4 4 4 3
5 5 8 5 4 4 2 5 2 3 0 4 2 2 3 9 4 3 9 11 15 15 11 12 15 16 16 15 12 9 10 7 8 4 3 3 3 2 2 2 2 4 5 5
7 6 7 5 4 3 1 5 3 3 4 3 4 3 3 7 4 3 3 5 9 16 15 12 14 16 16 16 15 13 14 11 9 6 4 3 4 3 2 2 2 3 4 4
4 2 7 4 3 6 1 7 5 2 3 1 3 3 3 7 8 9 8 8 9 11 14 12 14 15 15 16 16 14 11 11 9 8 6 7 4 4 3 4 3 3 4 4
6 7 5 4 6 7 7 6 7 4 3 3 3 4 5 4 8 13 17 14 13 13 13 15 15 16 17 15 14 14 13 10 9 10 8 7 5 3 3 2 5 4 3 4
3 1 3 7 6 9 5 6 8 6 4 3 3 5 6 3 5 4 12 15 17 16 15 14 16 15 15 14 13 13 13 13 10 11 8 10 10 7 4 3 4 3 2 2
4 3 5 4 2 3 5 7 3 4 3 6 5 5 2 8 10 9 13 16 16 17 16 10 18 17 15 15 15 13 13 14 11 12 11 10 10 10 9 6 4 5 3 3
4 4 6 9 4 2 4 8 7 6 6 4 2 6 1 5 8 12 15 8 12 15 15 15 13 16 16 17 17 16 15 14 12 11 12 9 8 7 6 6 4 4 5 5
5 0 5 4 4 2 3 5 3 8 2 5 2 7 4 20 19 21 19 14 4 11 14 14 13 15 17 17 18 18 16 16 13 14 9 8 7 7 9 8 6 4 5 4
1 5 3 5 6 7 7 1 4 4 4 3 3 4 4 17 18 19 21 17 12 10 12 12 15 14 15 16 16 17 17 18 16 15 13 10 11 9 8 8 8 7 6 5
2 4 5 6 9 6 7 6 6 6 3 6 4 2 5 8 12 15 17 20 18 12 11 11 10 6 10 12 14 15 15 16 14 13 12 11 9 9 7 9 9 9 6 6
4 6 6 2 5 5 4 4 3 6 4 2 4 3 7 7 11 13 16 19 20 12 4 4 5 7 6 9 12 14 14 14 15 13 13 12 9 10 10 9 10 9 9 6
1 4 5 4 6 6 7 6 3 4 3 1 5 4 6 9 13 15 16 18 18 19 15 11 8 5 4 2 4 6 8 11 11 9 11 10 10 9 12 11 8 9 10 9
7 4 3 7 4 3 4 5 4 4 4 6 3 1 5 9 12 15 16 17 16 18 18 14 10 6 5 3 3 6 6 6 8 10 11 11 12 12 12 12 11 10 10 10
6 5 4 4 5 3 3 2 4 3 1 3 7 4 1 4 7 8 10 15 18 17 17 17 15 12 12 9 4 4 6 11 11 11 13 15 13 12 11 10 10 12 11 11
4 3 3 2 3 3 3 6 7 5 3 5 2 3 3 3 2 9 11 13 14 14 16 14 15 15 14 12 10 10 5 5 9 13 15 14 12 12 12 12 11 9 11 11
3 5 3 3 2 1 3 0 3 2 2 2 3 1 5 5 8 8 8 9 11 11 11 13 12 12 12 13 11 10 9 8 5 9 12 11 11 12 12 12 11 12 12 11
4 4 3 3 1 4 5 3 6 4 1 1 3 3 4 4 6 4 8 10 10 11 11 9 9 9 10 11 13 11 10 8 5 5 10 11 13 14 11 10 12 12 11 11
2 5 4 4 2 2 4 4 3 1 5 2 2 6 8 12 7 4 10 11 11 11 10 8 8 8 5 9 11 11 9 10 10 9 8 5 6 12 12 14 13 12 10 11
4 6 6 2 4 3 4 1 4 2 4 5 5 5 6 9 4 1 14 14 12 13 12 11 11 9 9 6 9 9 9 6 8 9 10 9 8 7 11 13 13 10 10 12
4 4 4 2 2 5 2 5 4 4 2 3 5 4 4 2 4 14 14 13 12 11 12 13 11 9 8 7 6 8 10 9 8 8 8 8 8 8 7 5 7 10 10 10
4 5 3 4 3 6 2 1 4 2 2 3 2 3 5 6 11 14 17 14 12 16 14 13 12 12 8 5 5 6 7 10 10 8 7 7 8 6 6 6 7 7 11 13
2 6 5 7 6 1 2 1 1 3 2 3 4 6 11 9 9 12 14 19 15 13 13 12 11 13 11 4 3 7 5 7 10 9 6 6 8 7 7 7 9 8 10 11
3 4 3 4 0 4 6 4 4 5 4 5 8 8 11 12 12 15 15 14 17 14 12 11 12 13 14 8 4 6 7 7 8 8 8 7 7 7 3 6 6 7 9 10
5 6 5 5 7 4 6 6 8 7 7 7 6 8 10 12 12 13 17 16 14 16 13 11 11 12 15 12 7 3 5 7 9 8 8 7 6 4 5 9 8 7 10 11
7 9 7 8 8 6 5 9 9 8 7 6 5 7 9 10 12 14 16 14 15 16 14 13 13 13 14 13 6 4 5 5 8 9 7 6 7 6 8 7 10 11 16 19
Wind_Direction
191 108 187 190 191 179 132 102 51 247 256 227 254 199 187 182 192 181 187 185 184 194 176 187 178 176 176 165 165 176 174 177 164 148 145 145 192 157 165 184 190 190 176 149
58 203 205 184 188 182 165 112 260 293 83 131 38 21 187 163 195 142 187 195 189 184 185 192 187 180 181 179 183 176 190 176 188 169 162 148 156 143 136 146 194 203 183 159
148 214 167 179 181 144 143 138 196 227 17 48 107 33 159 167 145 285 249 207 201 193 187 188 189 186 188 186 183 189 187 183 184 156 124 92 87 67 82 135 209 196 193 172
181 169 157 162 203 137 206 195 174 238 73 277 114 290 270 193 199 221 249 214 202 197 189 186 188 187 189 195 194 185 181 184 178 165 163 157 156 150 200 174 169 185 194 186
234 153 166 166 202 166 210 163 167 186 148 69 330 68 253 154 221 215 224 224 207 209 197 180 189 188 192 189 193 186 178 182 186 182 172 159 155 155 145 141 159 179 205 197
194 195 120 200 201 185 115 83 41 48 81 50 223 124 312 313 301 314 223 220 217 203 203 185 182 186 193 188 189 188 175 188 188 186 178 172 170 165 148 159 173 183 198 221
14 19 331 38 129 91 91 81 28 39 53 200 305 73 217 306 349 306 264 221 209 209 201 178 183 186 188 184 184 187 187 187 186 190 189 189 182 169 179 178 179 165 180 203
130 352 8 332 37 153 155 155 151 158 171 193 343 158 96 354 323 350 9 234 210 209 199 200 192 187 188 187 185 186 192 198 189 188 199 191 191 184 174 173 170 188 197 209
131 123 331 40 21 45 171 71 184 108 18 87 254 339 309 350 359 2 4 10 281 217 211 203 197 193 188 190 191 188 194 199 196 192 193 193 182 192 192 177 173 180 194 203
93 92 17 313 18 22 94 93 74 12 129 146 28 73 323 343 341 339 347 350 331 292 216 199 200 188 192 194 191 190 195 199 195 196 190 196 191 200 201 176 181 187 193 192
73 76 329 39 19 336 6 19 39 108 95 150 126 264 20 330 336 337 341 339 334 313 216 202 200 184 187 190 188 191 197 198 200 199 205 193 191 191 192 199 188 191 182 182
359 107 67 74 292 347 52 62 102 120 206 61 121 221 45 360 346 353 351 355 358 7 69 118 167 152 167 186 191 193 194 199 203 201 195 202 197 183 192 211 201 182 196 186
8 35 86 14 333 2 46 336 92 90 80 95 127 218 49 6 7 359 359 9 18 22 28 33 43 67 118 143 180 186 196 206 202 192 201 199 198 194 204 205 211 200 192 192
78 75 120 171 139 144 72 340 353 97 103 157 200 240 336 11 8 358 2 9 24 33 29 23 26 35 47 20 191 194 198 196 199 188 198 202 204 205 209 210 199 201 204 198
82 101 73 76 86 89 146 156 319 339 162 147 167 180 307 345 10 7 5 15 19 25 28 18 11 16 25 24 334 267 213 193 193 194 200 209 209 211 209 210 210 208 201 209
7 124 117 100 42 56 189 219 219 240 282 283 147 189 254 262 40 34 26 16 15 15 16 16 12 10 11 4 352 353 329 254 212 210 211 209 208 203 208 207 207 194 214 211
60 120 92 165 7 358 21 322 183 219 275 308 249 121 347 7 21 26 12 22 9 2 4 6 7 2 355 352 347 328 319 307 274 238 214 205 201 210 207 208 202 205 205 201
112 88 84 159 35 179 240 272 250 188 75 34 110 80 4 339 315 332 30 4 359 348 349 354 353 355 352 345 343 326 336 322 271 266 234 214 212 217 212 205 208 212 211 207
43 118 82 121 144 308 315 15 29 13 244 6 328 44 358 337 303 209 34 2 342 329 328 323 336 339 346 348 341 335 344 7 13 10 349 338 235 215 212 218 218 217 213 212
61 74 107 118 109 192 232 184 338 336 265 14 27 35 24 348 2 237 353 341 334 329 329 328 330 329 339 353 342 338 334 4 7 355 341 332 328 325 226 219 219 218 221 220
17 19 117 130 153 289 111 293 302 163 215 42 359 355 15 328 256 298 313 315 315 312 319 324 325 320 319 339 347 337 328 333 338 331 327 323 325 319 304 301 231 212 212 217
170 131 167 128 112 270 182 106 198 177 297 321 291 302 307 293 293 300 306 306 306 309 314 316 316 312 311 310 343 326 315 315 315 320 320 317 312 309 298 292 283 264 234 228
232 180 184 176 210 137 169 201 171 150 182 289 282 283 312 299 291 296 300 306 303 295 296 302 305 306 304 282 282 313 302 302 305 299 303 306 275 273 284 282 262 263 252 229
232 159 143 32 198 197 197 240 202 185 222 251 258 298 301 299 303 299 292 288 294 293 285 287 294 296 296 291 235 243 282 298 296 292 319 302 285 283 307 263 268 277 252 233
198 133 175 264 262 247 232 193 186 215 217 238 250 272 283 287 287 297 295 290 286 288 285 278 274 282 288 291 276 271 285 283 301 310 302 288 286 309 306 295 284 273 282 249
188 176 171 217 210 161 188 183 182 193 213 220 239 270 289 304 282 295 290 288 286 283 282 273 271 278 285 282 280 307 308 305 301 303 303 301 317 349 297 295 294 263 254 262